When you browse on this site, cookies collect data to enhance your experience and personalize the content and advertising you see.
Visit our Privacy Policy to learn more. By continuing to use the site, you agree to this use of cookies and data.
  • In Romania
  • List of Countries
  • For 7 days
  • Water Temperature
  • Satellite Maps
  • Weather Map
  • Weather Widgets
  • user-avatar
    Login

    Hourly Weather Arnedo

    Today, 22 February, Friday

    Time Temperature Precipitation Wind Pressure Humidity
    00:00 +8°C° 0 mm 1 mps 713 mmHg 53%
    01:00 +8°C° 0 mm 1 mps 713 mmHg 53%
    02:00 +7°C° 0 mm 1 mps 713 mmHg 53%
    03:00 +7°C° 0 mm 1 mps 713 mmHg 53%
    04:00 +6°C° 0 mm 1 mps 713 mmHg 53%
    05:00 +6°C° 0 mm 1 mps 713 mmHg 53%
    06:00 +6°C° 0 mm 1 mps 713 mmHg 53%
    07:00 +8°C° 0 mm 1 mps 713 mmHg 48%
    08:00 +10°C° 0 mm 1 mps 713 mmHg 43%
    09:00 +11°C° 0 mm 1 mps 713 mmHg 38%
    10:00 +13°C° 0 mm 1 mps 713 mmHg 33%
    11:00 +15°C° 0 mm 1 mps 713 mmHg 29%
    12:00 +18°C° 0 mm 1 mps 713 mmHg 24%
    13:00 +19°C° 0 mm 1 mps 713 mmHg 23%
    14:00 +19°C° 0 mm 1 mps 712 mmHg 22%
    15:00 +20°C° 0 mm 1 mps 712 mmHg 22%
    16:00 +18°C° 0 mm 1 mps 712 mmHg 28%
    17:00 +15°C° 0 mm 1 mps 711 mmHg 35%
    18:00 +12°C° 0 mm 1 mps 711 mmHg 41%
    19:00 +12°C° 0 mm 1 mps 711 mmHg 41%
    20:00 +12°C° 0 mm 2 mps 712 mmHg 41%
    21:00 +10°C° 0 mm 2 mps 712 mmHg 41%
    22:00 +10°C° 0 mm 2 mps 712 mmHg 41%
    23:00 +9°C° 0 mm 2 mps 712 mmHg 41%

    Tomorrow, 23 February, Saturday

    Time Temperature Precipitation Wind Pressure Humidity
    00:00 +9°C° 0 mm 2 mps 712 mmHg 42%
    01:00 +8°C° 0 mm 2 mps 711 mmHg 41%
    02:00 +8°C° 0 mm 2 mps 711 mmHg 40%
    03:00 +8°C° 0 mm 2 mps 711 mmHg 39%
    04:00 +7°C° 0 mm 2 mps 711 mmHg 39%
    05:00 +7°C° 0 mm 2 mps 711 mmHg 39%
    06:00 +6°C° 0 mm 2 mps 711 mmHg 39%
    07:00 +9°C° 0 mm 1 mps 712 mmHg 37%
    08:00 +11°C° 0 mm 1 mps 712 mmHg 35%
    09:00 +13°C° 0 mm 1 mps 713 mmHg 34%
    10:00 +14°C° 0 mm 1 mps 713 mmHg 31%
    11:00 +16°C° 0 mm 1 mps 713 mmHg 29%
    12:00 +17°C° 0 mm 2 mps 713 mmHg 27%
    13:00 +18°C° 0 mm 2 mps 713 mmHg 27%
    14:00 +19°C° 0 mm 3 mps 713 mmHg 28%
    15:00 +19°C° 0 mm 4 mps 712 mmHg 28%
    16:00 +17°C° 0 mm 3 mps 712 mmHg 35%
    17:00 +14°C° 0 mm 3 mps 712 mmHg 41%
    18:00 +13°C° 0 mm 3 mps 712 mmHg 48%
    19:00 +12°C° 0 mm 3 mps 712 mmHg 51%
    20:00 +11°C° 0 mm 3 mps 713 mmHg 53%
    21:00 +10°C° 0 mm 3 mps 713 mmHg 56%
    22:00 +10°C° 0 mm 3 mps 713 mmHg 56%
    23:00 +9°C° 0 mm 3 mps 713 mmHg 56%

    Day after tomorrow, 24 February, Sunday

    Time Temperature Precipitation Wind Pressure Humidity
    00:00 +9°C° 0 mm 3 mps 713 mmHg 56%
    01:00 +8°C° 0 mm 3 mps 713 mmHg 57%
    02:00 +8°C° 0 mm 2 mps 713 mmHg 58%
    03:00 +7°C° 0 mm 2 mps 713 mmHg 59%
    04:00 +7°C° 0 mm 2 mps 713 mmHg 60%
    05:00 +7°C° 0 mm 2 mps 713 mmHg 61%
    06:00 +6°C° 0 mm 2 mps 713 mmHg 63%
    07:00 +9°C° 0 mm 1 mps 713 mmHg 59%
    08:00 +10°C° 0 mm 1 mps 714 mmHg 55%
    09:00 +11°C° 0 mm 1 mps 714 mmHg 51%
    10:00 +12°C° 0 mm 1 mps 714 mmHg 48%
    11:00 +14°C° 0 mm 1 mps 714 mmHg 45%
    12:00 +15°C° 0 mm 1 mps 714 mmHg 42%
    13:00 +16°C° 0 mm 1 mps 714 mmHg 42%
    14:00 +16°C° 0 mm 1 mps 713 mmHg 41%
    15:00 +16°C° 0 mm 1 mps 713 mmHg 40%
    16:00 +15°C° 0 mm 1 mps 713 mmHg 46%
    17:00 +13°C° 0 mm 1 mps 713 mmHg 51%
    18:00 +12°C° 0 mm 1 mps 713 mmHg 57%
    19:00 +11°C° 0 mm 1 mps 713 mmHg 59%
    20:00 +10°C° 0 mm 0 mps 713 mmHg 60%
    21:00 +9°C° 0 mm 0 mps 714 mmHg 62%
    22:00 +9°C° 0 mm 0 mps 714 mmHg 64%
    23:00 +8°C° 0 mm 0 mps 714 mmHg 65%

    25 February, Monday

    Time Temperature Precipitation Wind Pressure Humidity
    00:00 +8°C° 0 mm 0 mps 714 mmHg 66%
    01:00 +8°C° 0 mm 1 mps 714 mmHg 69%
    02:00 +8°C° 0 mm 1 mps 714 mmHg 72%
    03:00 +8°C° 0 mm 1 mps 713 mmHg 74%
    04:00 +7°C° 0 mm 1 mps 713 mmHg 78%
    05:00 +7°C° 0 mm 1 mps 713 mmHg 83%
    06:00 +6°C° 0 mm 1 mps 713 mmHg 87%
    07:00 +7°C° 0 mm 1 mps 714 mmHg 83%
    08:00 +8°C° 0 mm 2 mps 714 mmHg 79%
    09:00 +9°C° 0 mm 2 mps 715 mmHg 75%
    10:00 +11°C° 0 mm 3 mps 714 mmHg 68%
    11:00 +12°C° 0 mm 3 mps 714 mmHg 61%
    12:00 +14°C° 0 mm 4 mps 714 mmHg 54%
    13:00 +15°C° 0 mm 4 mps 714 mmHg 51%
    14:00 +15°C° 0 mm 4 mps 713 mmHg 48%
    15:00 +17°C° 0 mm 4 mps 713 mmHg 45%
    16:00 +14°C° 0 mm 4 mps 712 mmHg 51%
    17:00 +13°C° 0 mm 3 mps 712 mmHg 56%
    18:00 +12°C° 0 mm 3 mps 712 mmHg 61%
    19:00 +12°C° 0 mm 2 mps 712 mmHg 64%
    20:00 +10°C° 0 mm 2 mps 712 mmHg 66%
    21:00 +9°C° 0 mm 2 mps 712 mmHg 69%
    22:00 +9°C° 0 mm 2 mps 712 mmHg 69%
    23:00 +8°C° 0 mm 2 mps 712 mmHg 69%

    26 February, Tuesday

    Time Temperature Precipitation Wind Pressure Humidity
    00:00 +8°C° 0 mm 2 mps 712 mmHg 69%
    01:00 +7°C° 0 mm 2 mps 712 mmHg 68%
    02:00 +7°C° 0 mm 2 mps 711 mmHg 68%
    03:00 +6°C° 0 mm 2 mps 711 mmHg 67%
    04:00 +6°C° 0 mm 2 mps 711 mmHg 66%
    05:00 +6°C° 0 mm 2 mps 711 mmHg 65%
    06:00 +5°C° 0 mm 2 mps 711 mmHg 64%
    07:00 +6°C° 0 mm 2 mps 711 mmHg 58%
    08:00 +8°C° 0 mm 3 mps 711 mmHg 52%
    09:00 +9°C° 0 mm 3 mps 712 mmHg 45%
    10:00 +11°C° 0 mm 4 mps 712 mmHg 41%
    11:00 +13°C° 0 mm 5 mps 712 mmHg 36%
    12:00 +15°C° 0 mm 5 mps 712 mmHg 32%
    13:00 +15°C° 0 mm 5 mps 711 mmHg 31%
    14:00 +16°C° 0 mm 6 mps 711 mmHg 30%
    15:00 +16°C° 0 mm 6 mps 711 mmHg 30%
    16:00 +15°C° 0 mm 5 mps 711 mmHg 34%
    17:00 +13°C° 0 mm 4 mps 710 mmHg 39%
    18:00 +11°C° 0 mm 3 mps 710 mmHg 44%
    19:00 +10°C° 0 mm 3 mps 710 mmHg 46%
    20:00 +10°C° 0 mm 2 mps 711 mmHg 47%
    21:00 +9°C° 0 mm 2 mps 711 mmHg 49%
    22:00 +8°C° 0 mm 2 mps 711 mmHg 50%
    23:00 +8°C° 0 mm 2 mps 711 mmHg 51%

    27 February, Wednesday

    Time Temperature Precipitation Wind Pressure Humidity
    00:00 +7°C° 0 mm 2 mps 711 mmHg 52%
    01:00 +7°C° 0 mm 2 mps 711 mmHg 52%
    02:00 +6°C° 0 mm 2 mps 710 mmHg 52%
    03:00 +6°C° 0 mm 2 mps 710 mmHg 52%
    04:00 +6°C° 0 mm 2 mps 710 mmHg 52%
    05:00 +5°C° 0 mm 2 mps 710 mmHg 53%
    06:00 +5°C° 0 mm 2 mps 710 mmHg 53%
    07:00 +7°C° 0 mm 2 mps 710 mmHg 49%
    08:00 +8°C° 0 mm 2 mps 711 mmHg 46%
    09:00 +10°C° 0 mm 2 mps 711 mmHg 42%
    10:00 +13°C° 0 mm 2 mps 711 mmHg 37%
    11:00 +13°C° 0 mm 3 mps 711 mmHg 32%
    12:00 +15°C° 0 mm 4 mps 711 mmHg 28%
    13:00 +17°C° 0 mm 4 mps 710 mmHg 26%
    14:00 +17°C° 0 mm 4 mps 710 mmHg 25%
    15:00 +18°C° 0 mm 4 mps 709 mmHg 23%
    16:00 +15°C° 0 mm 4 mps 709 mmHg 28%
    17:00 +13°C° 0 mm 3 mps 709 mmHg 32%
    18:00 +12°C° 0 mm 3 mps 709 mmHg 36%
    19:00 +12°C° 0 mm 2 mps 709 mmHg 37%
    20:00 +10°C° 0 mm 2 mps 709 mmHg 38%
    21:00 +9°C° 0 mm 2 mps 709 mmHg 40%
    22:00 +8°C° 0 mm 2 mps 709 mmHg 41%
    23:00 +9°C° 0 mm 1 mps 709 mmHg 42%
    Show more